Weather in Kurskaya

Russia / Stavropol Krai     44°02′33″N   44°27′44″E
temp.,
°C
wind,
m/s
gust,
m/s
humid.,
%
clouds,
%
prec.,
mm/h
press.,
hPa
HPBL,
m
4 december, sat
sat400:00+3nw22905 0.0 101910
03:00+3wnw229052 0.0 102017
06:00+2wsw33857 0.0 102023
09:00+5wsw22585 0.0 102067
12:00+10w11382 0.0 1018210
15:00+11e224283 0.0 101781
18:00+7ese335678 0.0 101729
21:00+6ese225787 0.0 101617
5 december, sun
sun500:00+5ese335951 0.0 101428
03:00+4ese225760 0.0 101410
06:00+4e115696 0.0 101410
09:00+5ese2251100 0.0 101425
12:00+9ne1240100 0.0 1013188
15:00+10nne2348100 0.0 1014129
18:00+8ese1260100 0.0 101612
21:00+7sw115999 0.0 101710
6 december, mon
mon600:00+6w225823 0.0 101710
03:00+5sw225631 0.0 101810
06:00+5wsw11555 0.0 101910
09:00+7ssw22515 0.0 102050
12:00+12ene22370 0.0 1019260
15:00+12ese353942 0.0 1019222
18:00+8ese345216 0.0 102146
21:00+7se366182 0.0 102184
7 december, tue
tue700:00+6ese34710 0.0 102161
03:00+5ese35750 0.0 102184
06:00+4e36770 0.0 102190
09:00+6e39810 0.0 1021242
12:00+10ese69685 0.0 1019486
15:00+11e59625 0.0 1017701
18:00+8e410797 0.0 1016261
21:00+6e5109016 0.0 1014299
8 december, wed
wed800:00+7ese6884100 0.0 1012563
03:00+8ese4680100 0.0 1010288
06:00+9e2279100 0.0 100930
09:00+9w117397 0.0 1009245
12:00+11wnw33651 0.0 1007710
15:00+11nw45630 0.0 1007690
18:00+8nw33805 0.0 100856
21:00+7w338712 0.0 100960